Regional Weather Roundup
Issued by NWS

Home | Current Version | Previous Version | Graphics & Text | Print | Product List | Glossary Off
Versions: 1 2 3 4 5 6 7 8 9 10 11 12 13 14 15 16 17 18 19 20 21 22 23 24 25 26 27 28 29 30 31 32 33 34 35 36 37 38 39 40 41 42 43 44 45 46 47 48 49 50

000
ASUS43 KMKX 092300
RWRWI

WISCONSIN REGIONAL WEATHER ROUNDUP
NATIONAL WEATHER SERVICE MILWAUKEE/SULLIVAN WI
500 PM CST FRI DEC 09 2016

NOTE: "FAIR" INDICATES FEW OR NO CLOUDS BELOW 12,000 FEET WITH NO
SIGNIFICANT WEATHER AND/OR OBSTRUCTIONS TO VISIBILITY.

WIZ001-002-006>008-014>016-023>028-100000-
NORTHWEST WISCONSIN

CITY           SKY/WX    TMP DP  RH WIND       PRES   REMARKS
SUPERIOR ARPT  CLOUDY    12   2  62 N8        30.50S WCI   1
ASHLAND        CLOUDY    13   2  61 W9        30.47S WCI   1
HAYWARD        CLOUDY    14   3  61 NW5       30.43S WCI   6
SIREN          LGT SNOW  15  10  78 W5        30.46S WCI   8
CUMBERLAND     CLOUDY    16   9  73 W9        30.43S WCI   4
RICE LAKE      CLOUDY    17   8  69 W7        30.46S WCI   8
CHETEK         CLOUDY    17   8  70 W3        30.46S
LADYSMITH      CLOUDY    17  13  83 W5        30.44S WCI  10
EAU CLAIRE     MOCLDY    16   9  74 SW6       30.47S WCI   7
MENOMONIE      FLURRIES  18  12  76 SW5       30.48S WCI  11
NEW RICHMOND   CLOUDY    17   7  66 W9        30.48S WCI   5
OSCEOLA        FLURRIES  17   8  69 W9        30.51S WCI   5
$$

WIZ003>005-009-010-017-018-100000-
NORTH CENTRAL WISCONSIN

CITY           SKY/WX    TMP DP  RH WIND       PRES   REMARKS
MANITOWISH WTR FLURRIES  13   8  81 CALM      30.37S
ARBOR VITAE    CLOUDY    17   9  70 NW9       30.37S WCI   5
WOODRUFF       CLOUDY    17   9  70 NW9       30.37S WCI   5
RHINELANDER    CLOUDY    15   7  70 NW3       30.38S
EAGLE RIVER    CLOUDY    14   4  65 W7        30.37S WCI   4
LAND O LAKES   LGT SNOW  13   8  80 NW3       30.38S
PHILLIPS       CLOUDY    15  10  81 CALM      30.39S
TOMAHAWK       CLOUDY    15   8  72 W5        30.40S WCI   8
MEDFORD        CLOUDY    15   9  75 W5        30.40S WCI   8
MERRILL        CLOUDY    17   7  64 W5        30.42S WCI  10
$$

WIZ029-030-035-036-043>047-100000-
CENTRAL WISCONSIN

CITY           SKY/WX    TMP DP  RH WIND       PRES   REMARKS
WAUSAU         MOCLDY    15   9  76 W7        30.41F WCI   5
MOSINEE        CLOUDY    16  10  79 W8        30.43S WCI   5
MARSHFIELD     CLOUDY    17   9  70 W8        30.42F WCI   7
STEVENS POINT  MOCLDY    16   7  67 NW5       30.45S WCI   9
WAUPACA        CLEAR     21   8  58 CALM      30.46S
WAUTOMA        CLEAR     17   7  64 NW3       30.47S
WISC RAPIDS    CLOUDY    18   9  68 NW5       30.46S WCI  11
CAMP DOUGLAS   NOT AVBL
$$

WIZ011>013-019>022-031-037>040-048>050-100000-
NORTHEAST WISCONSIN

CITY           SKY/WX    TMP DP  RH WIND       PRES   REMARKS
ANTIGO         CLOUDY    15   6  66 NW7       30.39S WCI   5
SHAWANO        CLOUDY    23   8  52 W8G16     30.45R WCI  14
OCONTO         CLOUDY    23   8  52 NW8       30.43R WCI  14
STURGEON BAY   CLOUDY    24   9  52 NW13      30.41S WCI  12
GREEN BAY      PTCLDY    23  10  57 W12       30.44R WCI  12
MANITOWOC      NOT AVBL
APPLETON       PTCLDY    19   3  49 NW13      30.43R WCI   7
CLINTONVILLE   CLOUDY    21   5  49 NW10      30.45R WCI  10
OSHKOSH        CLEAR     19   7  59 NW7       30.45S WCI  10
$$

WIZ032>034-041-042-053>061-100000-
SOUTHWEST WISCONSIN

CITY           SKY/WX    TMP DP  RH WIND       PRES   REMARKS
LA CROSSE      MOCLDY    20  10  65 W9        30.51S WCI   9
SPARTA         CLEAR     20  11  68 W5        30.49S WCI  14
VIROQUA        CLEAR     15   9  74 W6        30.46S WCI   7
BOSCOBEL       CLEAR     21  11  65 W5        30.53R WCI  15
PRAIRIE DU CHI CLEAR     19  10  69 W6        30.54R WCI  11
PLATTEVILLE    CLEAR     18  12  79 W5        30.50S WCI  11
$$

WIZ056-057-062-063-064-067-068-100000-
SOUTH CENTRAL WISCONSIN

CITY           SKY/WX    TMP DP  RH WIND       PRES   REMARKS
REEDSBURG      CLEAR     20   9  61 W6        30.47S WCI  13
BARABOO/DELLS  CLEAR     20   8  60 CALM      30.46S
LONE ROCK      NOT AVBL
MINERAL POINT  CLEAR     21  12  68 SW3       30.47S
MADISON        MOCLDY    20   9  62 CALM      30.48S
MIDDLETON      PTCLDY    22  12  65 W5        30.48R WCI  16
WATERTOWN      CLEAR     20  11  67 W5        30.47S WCI  14
MONROE         CLEAR     19  12  73 W8        30.48R WCI   9
JANESVILLE     CLEAR     21  14  73 W6        30.50R WCI  14
$$

WIZ051-052-058>065-066-070>072-100000-
SOUTHEAST WISCONSIN

CITY           SKY/WX    TMP DP  RH WIND       PRES   REMARKS
MILWAUKEE      PTCLDY    24   7  48 W9        30.48R WCI  14
WAUKESHA       PTCLDY    19  10  68 SW14      30.48R WCI   6
MILWAUKEE/TIMM CLEAR     21   5  49 W7        30.48S WCI  13
RACINE         CLEAR     23   7  50 NW7       30.50R WCI  15
BURLINGTON     PTCLDY    25  16  67 CALM      30.49R
KENOSHA        CLEAR     21  10  62 W6        30.49R WCI  13
FOND DU LAC    CLEAR     19   5  54 NW7       30.46S WCI  10
SHEBOYGAN      CLEAR     21   7  54 W12       30.45R WCI   9
WEST BEND      CLEAR     21   9  58 W7        30.45S WCI  13
JUNEAU         CLEAR     19   7  60 W3        30.47S
$$

LSZ147-162-100000-
LAKE SUPERIOR

STATION/POSITION TIME  TEMP    WIND        PRES    WAVE
                       AIR SEA DIR/SP/G            HT/PER
                 (UTC) (F)     (DEG/KT/KT) (MB)    (FT/S)
DEVILS ISLAND    2200   15     260/ 17/ 21 1032.8R
PORT WING        2240   15     300/ 16/ 19 1031.8F
SAXON HARBOR     2240   16     270/  8/ 12 1031.5S
$$

LMZ867-665-643>646-100000-
LAKE MICHIGAN

STATION/POSITION TIME  TEMP    WIND        PRES    WAVE
                       AIR SEA DIR/SP/G            HT/PER
                 (UTC) (F)     (DEG/KT/KT) (MB)    (FT/S)
CHAMBERS ISLAND  2240   24     270/  9/ 14 1029.1R
NORTHPORT PIER   2249   25     290/ 10/ 18 1028.8S
SISTER BAY       2250   26     330/ 22/ 27   N/A
ALGOMA LAKESHORE 2206          310/ 11/ 14   N/A
KEWAUNEE LAKESHO 2230   24     290/  9/ 15 1029.5R
SHEBOYGAN LAKESH 2200   24     300/ 13/ 16 1031.9R
PORT WASHINGTON  2230   24     280/  5/ 10 1032.5S
MILWAUKEE LAKESH 2230   24     290/  9/ 11   N/A
KENOSHA   LAKESH 2200   25     290/  8/ 14 1032.2
$$

TC  - TEMPERATURE IN CELSIUS
VSB - VISIBILITY IN STATUTE MILES
WCI - WIND CHILL INDEX
HX  - HEAT INDEX





USA.gov is the U.S. government's official web portal to all federal, state and local government web resources and services.